Torna al catalogo

RASSVET-2 NO. 2

AttivoComunicazioniSSO
NORAD 59780·PAYLOAD·🇷🇺 Russia
Questo nome del satellite non è ancora stato confermato da fonti ufficiali.

Lanciato May 16, 2024 da Plesetsk Cosmodrome

Loading…

Prossimi Passaggi (prossime 24 ore)

TLE

AggiornatoSource: Space-Track

Epoca: Sep 14, 2026, 22:47 UTC

1 59780U 24092H   26257.94943861  .00000128  00000-0  64492-4 0  9992
2 59780  98.6796  16.9296 0011299 309.0562  50.9615 14.31875461121747

Traccia RASSVET-2 NO. 2 in tempo reale con AllMySat

Download on the App Store